Location: Rounton
(54.4000°N, 1.3500°W)
Time: 18:41:09
(UTC+00:00)

Altair - Pass Details

Date: 02 December 2021
Orbit: 1501 x 1683 km, 47.2° (Epoch: 16 January)

Event Time Altitude Azimuth Distance (km) Brightness Sun altitude
Rises 20:15:30 0° 272° (W) 4,690 10.9 -38.0°
Reaches altitude 10° 20:18:40 10° 268° (W) 3,689 10.1 -38.5°
Enters shadow 20:26:17 47° 218° (SW) 1,904 7.9 -39.5°
Maximum altitude 20:27:25 50° 197° (SSW) 1,857 - -39.7°
Drops below altitude 10° 20:36:05 10° 126° (SE) 3,653 - -40.9°
Sets 20:39:13 0° 121° (ESE) 4,642 - -41.3°
